Regional Weather Roundup
Issued by NWS Green Bay, WI

Home | Current Version | Previous Version | Graphics & Text | Print | Product List | Glossary Off
Versions: 1 2 3 4 5 6 7 8 9 10 11 12 13 14 15 16 17 18 19 20 21 22 23 24 25 26 27 28 29 30 31 32 33 34 35 36 37 38 39 40 41 42 43 44 45 46 47 48 49 50

394
ASUS43 KGRB 231901
RWRGRB

NORTH-CENTRAL AND NORTHEAST WISCONSIN REGIONAL WEATHER ROUNDUP
NATIONAL WEATHER SERVICE GREEN BAY WI
200 PM CDT SAT SEP 23 2017

WIZ005-009-010>012-018-019-232000-
NORTH CENTRAL WISCONSIN

CITY           SKY/WX    TMP DP  RH WIND       PRES   REMARKS
IRONWOOD       MOSUNNY   85  70  60 SW14G20   29.97F
MANITOWISH WTR NOT AVBL
ARBOR VITAE    NOT AVBL
EAGLE RIVER    NOT AVBL
LAND O LAKES   NOT AVBL
RHINELANDER    MOSUNNY   85  68  56 SW12      30.05F
PHILLIPS       NOT AVBL
ANTIGO         NOT AVBL
TOMAHAWK       NOT AVBL
MERRILL        NOT AVBL
$$

WIZ013-073-232000-
NORTHEAST WISCONSIN

CITY           SKY/WX    TMP DP  RH WIND       PRES   REMARKS
IRON MOUNTAIN  SUNNY     89  64  43 SW10      30.01F HX  90
MARINETTE      SUNNY     87  71  58 S9        30.04F HX  93
$$

WIZ017-030-035>037-045-232000-
CENTRAL WISCONSIN

CITY           SKY/WX    TMP DP  RH WIND       PRES   REMARKS
MEDFORD        NOT AVBL
WAUSAU         LGT RAIN  85  65  51 SW14G22   30.03F
MOSINEE        MOSUNNY   86  66  51 SW14      30.06F
MARSHFIELD     MOSUNNY   87  65  47 SW12      30.04F
WISC RAPIDS    MOSUNNY   89  68  49 SW9       30.05F HX  93
STEVENS POINT  NOT AVBL
WAUPACA        NOT AVBL
SHAWANO        NOT AVBL
CLINTONVILLE   NOT AVBL
WAUTOMA        MOSUNNY   89  68  49 W8        30.05F HX  93
$$

WIZ038-039-048-051-232000-
FOX VALLEY

CITY           SKY/WX    TMP DP  RH WIND       PRES   REMARKS
NWS GREEN BAY  SUNNY     89  69  51 SW12      30.05F HX  93
APPLETON       MOSUNNY   88  64  45 SE7       30.06F
OSHKOSH        SUNNY     89  65  44 SW10      30.05F HX  91
FOND DU LAC    SUNNY     89  63  41 SW9       30.06F HX  90
$$

WIZ022-050-052-232000-
EAST CENTRAL WISCONSIN

CITY           SKY/WX    TMP DP  RH WIND       PRES   REMARKS
EPHRAIM        NOT AVBL
WASHINGTON ISL NOT AVBL
STURGEON BAY   SUNNY     88  69  53 S9        30.05F HX  92
MANITOWOC      SUNNY     84  69  60 S10       30.07F
SHEBOYGAN      SUNNY     89  72  56 S8        30.07F HX  96
$$

LMZ563-521-522-541>543-232000-
LAKESHORE

STATION/POSITION TIME  TEMP    WIND        PRES    VSBY  WAVE
                       AIR SEA DIR/SP/G                  HT/PER
                 (UTC) (F)     (DEG/KT/KT) (MB)    (MI)  (FT/S)
SHEBOYGAN LKSHOR 1800   72     170/ 15/ 16 1018.3F
KEWAUNEE LKSHORE 1830   67     180/ 11/ 12 1017.4F
NORTHPORT PIER   1840   77     140/  7/ 10 1017.3F
N MID LAKE BUOY  1750   69 66  190/ 12/ 14 1018.5F         2/ 4
S GREEN BAY BUOY 1830   74 69  190/  6/  8 1017.1F
SISTER BAY LKSHO 1819   92     250/  9/ 10   N/A
MENOMINEE LKSHOR 1830   80     160/  9/ 12 1016.8F
$$




USA.gov is the U.S. government's official web portal to all federal, state and local government web resources and services.